Location: *
(43.7000°S, 168.7000°W)
Time: 14:05:12
(UTC+00:00)

Cosmos 2227 - Pass Details

Date: 07 July 2020
Orbit: 833 x 863 km, 71.0° (Epoch: 03 August)

Event Time Altitude Azimuth Distance (km) Brightness Sun altitude
Rises 18:11:32 0° 204° (SSW) 3,417 6.9 -6.6°
Reaches altitude 10° 18:14:01 10° 202° (SSW) 2,477 6.2 -6.2°
Maximum altitude 18:19:42 73° 116° (ESE) 884 4.5 -5.3°
Drops below altitude 10° 18:25:20 10° 31° (NNE) 2,457 7.7 -4.4°
Sets 18:27:47 0° 29° (NNE) 3,388 8.4 -4.0°
